Simultaneous Nadir Overpasses (SNOs) Predictions

Prediction of SNOs over PacNW region [( 10.00, 139.50) to ( 22.70, 165.60)] between AQUA and NPP Satellites:

Table of predicted SNOs over PacNW region for the next 30.0 days since TLE Epoch: 5/1/2021
Index Date (AQUA) Time (AQUA) AQUA Lat,Lon Date (NPP) Time (NPP) NPP Lat,Lon Distance(km) Time Diff (sec)
1 05/03/2021 15:09:45 22.58, 159.85 05/03/2021 15:10:19 23.15, 157.34 265.04 34
2 05/11/2021 15:59:07 22.60, 147.50 05/11/2021 16:01:09 23.24, 144.65 301.21 122
3 05/19/2021 15:09:35 22.61, 159.88 05/19/2021 15:10:31 23.18, 157.30 272.66 56
4 05/22/2021 03:31:23 22.64, 147.58 05/22/2021 03:27:54 26.52, 144.83 513.43 209
5 05/27/2021 15:58:55 22.60, 147.54 05/27/2021 16:01:20 23.28, 144.61 309.58 145
